Location: Street
(51.1247°N, 2.7429°W)
Time: 14:47:07
(UTC+00:00)

SR - Pass Details

Date: 28 November 2020
Orbit: 575 x 880 km, 66.7° (Epoch: 25 January)

Event Time Altitude Azimuth Distance (km) Brightness Sun altitude
Rises 00:40:49 0° 319° (NW) 3,052 - -59.1°
Reaches altitude 10° 00:43:44 10° 338° (NNW) 2,194 - -59.0°
Maximum altitude 00:47:18 19° 24° (NNE) 1,725 - -58.8°
Drops below altitude 10° 00:51:04 10° 69° (ENE) 2,336 - -58.5°
Sets 00:54:17 0° 86° (E) 3,322 - -58.3°
